Temp
4 4 4 4 4 4 4 4 4 4 3 2 2 2 3 3 3 3 3 3 3 3 3 3 3 3 2 2 2 2 2 2 2 1 1 2 2 2
3 3 3 3 3 4 3 3 3 3 3 3 2 2 2 2 3 3 3 2 2 2 2 2 2 1 1 1 1 1 1 1 0 -0 -1 0 0 0
3 2 3 2 2 3 3 3 3 3 2 2 2 2 2 2 2 2 2 1 1 1 1 1 1 1 1 1 1 1 1 1 1 -0 -0 -1 -1 -1
2 2 2 1 1 2 2 4 2 2 1 1 1 1 1 1 1 1 1 1 1 1 1 1 0 0 1 0 -0 0 0 1 0 0 -0 -1 -2 -2
0 0 0 0 0 0 1 1 2 1 0 0 1 1 1 0 0 0 0 0 0 -0 -0 -0 -0 -0 -0 -1 -1 -0 0 0 -1 -1 -1 -1 -1 -1
0 0 0 -0 -0 -0 -0 -0 1 -0 -0 0 0 0 0 -0 -0 -0 -0 -1 -1 -1 -1 -1 -1 -1 -1 -1 -1 -1 -1 -1 -1 -1 -1 -2 -2 -2
-0 -0 -0 -1 -1 -1 -1 -1 -0 -0 -0 0 0 0 -0 0 -0 -1 -1 -1 -1 -1 -1 -1 -1 -1 -1 -2 -2 -2 -2 -2 -2 -2 -2 -2 -2 -2
-1 -1 -1 -1 -1 -1 -1 -1 -1 -1 -1 -0 -0 -0 -1 -1 -1 -1 -1 -1 -2 -1 -1 -1 -2 -2 -2 -3 -3 -3 -2 -3 -3 -3 -3 -3 -3 -3
-2 -2 -1 -1 -2 -1 -1 -1 -1 -1 -1 -0 -1 -1 -1 -1 -1 -1 -1 -1 -1 -2 -2 -3 -3 -3 -3 -3 -4 -3 -4 -4 -4 -4 -4 -4 -4 -4
-2 -2 -2 -2 -2 -2 -2 -2 -1 -1 -1 -1 -2 -2 -1 -1 -1 -1 -2 -2 -2 -2 -2 -2 -3 -3 -4 -4 -5 -5 -5 -5 -5 -5 -5 -5 -5 -5
-2 -2 -2 -2 -2 -2 -2 -2 -2 -1 -1 -2 -2 -2 -2 -2 -1 -1 -1 -2 -2 -2 -2 -2 -3 -3 -4 -4 -5 -5 -6 -6 -6 -6 -6 -6 -6 -6
-2 -2 -2 -2 -2 -2 -2 -2 -2 -2 -2 -2 -2 -2 -2 -2 -2 -2 -2 -2 -2 -2 -2 -3 -3 -4 -4 -5 -5 -5 -6 -6 -6 -6 -6 -6 -6 -6
-2 -3 -3 -2 -2 -2 -2 -2 -2 -2 -2 -2 -2 -2 -2 -2 -2 -2 -2 -2 -2 -2 -3 -3 -4 -4 -4 -5 -5 -6 -6 -7 -7 -7 -7 -7 -7 -6
-3 -3 -3 -3 -3 -2 -3 -3 -3 -3 -3 -3 -3 -2 -2 -2 -2 -2 -2 -2 -2 -3 -3 -4 -4 -5 -5 -6 -6 -7 -7 -7 -7 -7 -7 -7 -7 -7
-3 -3 -3 -3 -3 -3 -3 -3 -4 -3 -3 -3 -3 -3 -3 -3 -3 -3 -3 -3 -3 -4 -4 -4 -5 -5 -6 -6 -7 -7 -8 -8 -8 -7 -7 -7 -7 -7
-3 -3 -3 -3 -3 -3 -3 -4 -5 -4 -4 -4 -4 -4 -4 -4 -4 -4 -4 -4 -4 -4 -5 -5 -6 -6 -7 -7 -7 -8 -8 -8 -8 -8 -8 -8 -8 -7
-4 -4 -4 -4 -4 -4 -4 -5 -5 -4 -4 -4 -4 -5 -5 -4 -4 -4 -4 -4 -5 -5 -5 -6 -6 -7 -7 -8 -8 -8 -8 -9 -8 -8 -8 -8 -9 -8
-4 -4 -4 -4 -4 -4 -5 -5 -5 -5 -5 -5 -5 -5 -5 -5 -5 -5 -5 -5 -5 -6 -6 -7 -7 -7 -8 -8 -8 -8 -9 -9 -9 -9 -8 -8 -8 -8
-5 -5 -5 -4 -5 -5 -5 -5 -5 -5 -5 -5 -5 -5 -5 -5 -5 -5 -5 -6 -6 -6 -6 -7 -7 -8 -8 -8 -9 -9 -9 -9 -9 -9 -9 -9 -8 -8
-5 -5 -5 -5 -5 -5 -5 -5 -5 -5 -5 -5 -5 -5 -6 -6 -6 -6 -6 -6 -6 -7 -7 -7 -8 -8 -8 -9 -9 -9 -9 -9 -9 -9 -8 -8 -8 -8
-5 -5 -5 -5 -5 -5 -5 -5 -5 -5 -5 -5 -5 -6 -6 -6 -6 -6 -6 -6 -7 -7 -8 -8 -8 -9 -9 -9 -9 -10 -10 -10 -10 -9 -9 -8 -8 -7
-5 -5 -5 -5 -6 -6 -6 -7 -6 -5 -5 -6 -6 -6 -6 -6 -6 -7 -7 -7 -7 -8 -8 -8 -9 -9 -9 -9 -9 -9 -9 -10 -10 -10 -10 -10 -10 -10
-5 -5 -5 -5 -6 -6 -6 -7 -7 -7 -6 -6 -6 -6 -6 -6 -6 -7 -7 -7 -8 -8 -8 -9 -9 -10 -10 -10 -10 -10 -10 -10 -9 -9 -9 -10 -10 -10
Height
1512 1512 1513 1514 1514 1514 1514 1515 1515 1513 1516 1519 1523 1524 1525 1525 1525 1525 1526 1527 1528 1529 1528 1529 1528 1527 1526 1529 1528 1528 1527 1525 1525 1525 1529 1529 1525 1522
1509 1510 1510 1511 1511 1509 1511 1512 1512 1512 1515 1518 1520 1522 1523 1523 1522 1523 1523 1524 1525 1526 1525 1525 1525 1525 1526 1526 1525 1525 1524 1526 1527 1525 1525 1523 1523 1523
1504 1506 1506 1509 1509 1507 1507 1509 1509 1511 1516 1517 1518 1518 1519 1519 1519 1520 1521 1522 1523 1523 1523 1523 1523 1523 1524 1524 1524 1524 1524 1525 1523 1523 1524 1521 1521 1519
1503 1503 1501 1503 1502 1502 1503 1505 1506 1509 1515 1516 1515 1515 1515 1516 1516 1517 1518 1519 1520 1521 1522 1521 1522 1522 1522 1523 1523 1523 1522 1521 1522 1522 1519 1518 1517 1515
1498 1498 1498 1496 1496 1497 1498 1500 1502 1507 1510 1511 1511 1511 1512 1513 1514 1515 1516 1517 1518 1519 1520 1520 1520 1521 1521 1521 1522 1521 1520 1521 1520 1518 1517 1518 1515 1515
1491 1492 1492 1491 1493 1493 1495 1497 1499 1502 1504 1506 1507 1508 1509 1510 1512 1513 1513 1514 1515 1516 1517 1518 1518 1519 1520 1520 1520 1519 1519 1518 1518 1517 1516 1516 1515 1513
1485 1486 1488 1488 1489 1490 1491 1493 1494 1497 1499 1502 1503 1504 1506 1507 1508 1510 1510 1511 1512 1513 1514 1515 1516 1517 1518 1518 1517 1517 1517 1517 1516 1515 1514 1514 1513 1511
1480 1482 1483 1484 1486 1487 1488 1489 1491 1494 1496 1497 1499 1500 1502 1504 1505 1507 1508 1509 1510 1511 1512 1514 1515 1516 1516 1516 1516 1515 1515 1515 1514 1513 1513 1512 1510 1508
1478 1478 1479 1481 1482 1484 1485 1487 1489 1491 1492 1494 1495 1497 1499 1501 1502 1503 1505 1507 1508 1510 1511 1512 1514 1514 1514 1514 1514 1514 1514 1513 1512 1511 1510 1509 1507 1505
1474 1476 1477 1478 1479 1481 1483 1485 1486 1488 1489 1491 1493 1494 1497 1499 1501 1502 1503 1505 1507 1508 1509 1511 1512 1512 1512 1513 1513 1512 1512 1511 1509 1508 1507 1506 1504 1502
1472 1473 1475 1476 1478 1480 1482 1484 1485 1486 1487 1489 1491 1493 1496 1498 1500 1502 1503 1505 1506 1507 1508 1509 1509 1510 1510 1510 1510 1509 1509 1508 1507 1506 1505 1503 1501 1500
1470 1472 1473 1475 1477 1479 1481 1483 1484 1485 1487 1489 1491 1494 1496 1498 1499 1501 1502 1503 1504 1505 1506 1507 1507 1508 1508 1507 1507 1507 1506 1506 1505 1504 1502 1501 1499 1497
1468 1469 1471 1474 1476 1478 1480 1482 1484 1486 1487 1490 1492 1494 1496 1497 1499 1500 1501 1502 1502 1503 1504 1505 1505 1506 1506 1506 1505 1505 1505 1504 1503 1502 1500 1498 1497 1495
1466 1468 1470 1472 1475 1477 1479 1481 1483 1486 1488 1490 1492 1494 1495 1497 1498 1499 1500 1500 1501 1502 1502 1503 1503 1504 1503 1503 1504 1503 1503 1502 1501 1499 1498 1496 1494 1492
1466 1468 1469 1471 1473 1476 1478 1480 1483 1486 1488 1490 1492 1494 1495 1496 1497 1498 1499 1499 1500 1501 1501 1501 1501 1501 1501 1501 1502 1501 1500 1500 1499 1497 1496 1494 1493 1491
1466 1467 1469 1470 1473 1475 1478 1480 1483 1485 1488 1489 1491 1493 1494 1495 1496 1497 1498 1498 1499 1499 1499 1499 1499 1499 1499 1499 1499 1499 1499 1498 1497 1496 1495 1493 1492 1490
1465 1467 1469 1471 1473 1475 1477 1479 1482 1485 1487 1488 1489 1491 1492 1494 1495 1496 1496 1497 1497 1498 1498 1498 1497 1497 1497 1498 1498 1497 1497 1497 1496 1495 1495 1493 1490 1488
1465 1467 1469 1471 1474 1476 1478 1480 1482 1484 1485 1486 1487 1489 1490 1492 1493 1494 1495 1495 1496 1496 1496 1496 1496 1496 1496 1496 1496 1496 1496 1496 1495 1493 1492 1490 1489 1486
1464 1466 1469 1472 1474 1476 1477 1479 1480 1482 1483 1484 1485 1487 1488 1490 1491 1492 1493 1494 1494 1494 1494 1494 1494 1495 1495 1495 1495 1495 1495 1494 1493 1492 1489 1487 1485 1483
1464 1466 1468 1471 1473 1474 1475 1477 1478 1480 1481 1483 1484 1485 1486 1488 1489 1490 1491 1492 1492 1492 1492 1492 1493 1493 1494 1494 1494 1493 1493 1492 1490 1488 1485 1484 1482 1480
1463 1466 1468 1470 1472 1473 1474 1475 1476 1478 1479 1481 1482 1483 1484 1486 1487 1488 1489 1490 1490 1490 1491 1491 1492 1492 1492 1492 1492 1492 1491 1489 1487 1485 1483 1481 1478 1475
1461 1464 1465 1467 1469 1470 1471 1472 1473 1474 1476 1478 1480 1481 1482 1483 1485 1486 1487 1487 1488 1489 1490 1490 1490 1490 1490 1490 1490 1490 1489 1488 1487 1485 1482 1480 1477 1472
1458 1460 1462 1464 1466 1467 1468 1470 1471 1472 1473 1475 1476 1477 1479 1480 1482 1483 1484 1485 1486 1487 1487 1487 1488 1488 1488 1488 1488 1487 1486 1485 1484 1483 1481 1478 1475 1471
Wind_Speed
14 14 13 13 12 11 9 10 11 9 12 13 12 13 11 10 9 8 8 8 8 10 9 8 7 7 5 8 5 7 6 8 8 6 4 7 2 3
15 13 12 12 11 10 8 9 9 8 8 15 18 13 13 12 11 10 10 10 7 6 7 4 4 2 5 7 4 5 6 6 8 10 5 5 7 9
15 14 12 12 11 11 10 10 7 7 10 15 19 16 13 11 10 9 8 7 7 6 4 6 4 4 4 6 5 5 6 8 9 11 12 9 12 10
15 16 16 21 19 20 19 17 11 10 12 14 15 13 11 9 9 8 8 7 7 6 3 5 7 5 4 6 6 6 7 9 11 13 6 3 2 3
19 22 27 23 19 14 13 13 12 13 15 14 13 13 12 10 9 9 8 7 7 6 8 9 7 5 8 7 6 8 8 11 12 4 1 1 2 3
18 21 19 20 18 17 16 15 14 15 13 13 13 12 11 11 11 10 9 9 8 11 11 11 9 9 7 7 7 7 9 9 5 3 4 5 7 8
19 21 22 19 16 13 15 17 17 15 14 14 13 13 13 16 12 11 10 9 11 10 10 10 10 9 7 6 7 7 6 3 4 6 8 10 11 12
17 15 20 16 13 14 15 16 16 14 13 13 14 14 15 14 12 11 11 13 9 7 8 7 7 7 7 5 5 6 6 6 7 8 9 10 11 12
13 18 16 14 14 16 15 11 11 10 10 10 11 13 13 11 10 10 9 9 8 7 7 8 7 7 6 6 8 9 8 8 9 10 10 11 13 13
12 13 13 12 12 11 11 9 9 8 8 10 10 8 10 9 9 8 9 9 8 6 5 5 6 6 7 8 9 10 8 9 10 10 12 14 14 14
6 8 9 10 12 11 9 6 6 6 7 9 10 10 10 11 10 9 8 8 5 3 3 4 5 5 7 9 9 9 9 10 10 12 13 12 12 11
5 7 8 9 11 13 9 6 6 8 10 11 12 11 11 10 8 6 5 4 3 2 2 2 4 4 4 5 6 6 8 10 11 11 11 10 10 9
8 9 11 11 12 11 9 7 8 11 13 12 12 10 9 7 6 5 4 3 2 2 2 3 3 4 5 6 7 8 8 8 9 9 9 9 9 9
6 9 10 12 13 11 10 11 12 11 11 11 9 8 6 5 3 3 2 1 0 1 2 3 4 4 5 6 6 6 7 6 6 5 7 7 9 9
8 9 7 11 15 12 10 12 13 11 10 9 7 5 5 3 3 3 2 1 1 2 3 4 4 4 4 5 5 4 4 4 3 6 7 8 8 8
8 7 9 16 13 11 10 12 13 11 11 9 8 8 6 5 5 4 2 1 2 3 3 4 4 4 3 3 2 2 1 2 4 5 7 8 9 10
7 6 8 13 14 11 11 12 12 12 10 8 9 9 8 6 5 4 3 2 3 3 3 4 3 2 2 1 1 1 1 4 5 5 5 6 9 11
8 8 10 10 11 11 11 11 11 9 8 7 8 8 8 6 6 5 3 3 3 3 3 3 2 1 1 1 1 0 2 2 4 7 10 10 8 11
10 10 9 9 9 9 9 8 8 8 8 7 8 9 9 7 7 6 4 4 3 3 3 3 2 1 1 2 2 1 2 4 5 7 10 14 16 13
12 11 9 8 8 8 8 9 9 8 7 7 7 8 8 7 7 6 5 4 3 3 3 3 2 1 2 2 1 2 4 6 9 11 16 16 15 15
11 11 10 7 6 8 9 9 10 10 9 9 8 8 8 8 8 7 6 5 5 4 3 3 2 2 2 1 1 2 5 10 13 16 17 19 20 20
14 14 12 8 8 9 8 7 8 12 12 11 10 9 9 9 8 8 7 6 5 5 4 3 3 3 2 1 3 4 4 5 8 12 13 14 16 18
16 15 12 9 10 12 14 12 11 10 12 12 11 10 10 9 9 9 9 8 7 6 5 4 4 4 3 3 4 5 8 10 12 11 9 10 14 15
Wind_Direction
257 254 252 249 245 242 241 238 223 209 207 201 200 207 214 217 224 239 259 258 247 266 255 258 268 253 263 249 277 282 284 303 303 300 262 253 86 61
254 247 245 246 244 240 239 233 225 223 223 215 209 208 223 230 236 246 251 258 243 242 247 250 239 279 269 287 275 313 327 317 316 323 298 255 263 259
246 240 244 248 254 261 265 259 236 224 239 216 209 208 218 237 245 245 237 232 240 222 242 257 252 271 264 270 279 283 277 290 301 300 296 273 253 256
253 245 247 262 257 254 248 239 228 222 222 219 208 213 217 226 241 241 223 225 233 233 245 252 249 240 277 267 284 279 297 307 300 299 290 301 266 293
256 260 272 258 237 230 225 220 217 221 222 221 218 221 230 231 233 232 226 229 224 222 199 225 193 231 271 274 284 293 292 295 299 307 314 304 326 320
269 276 248 247 241 234 224 224 213 215 216 219 221 223 230 232 233 228 238 238 227 210 224 229 262 267 276 267 273 276 283 293 294 297 298 300 303 305
264 250 237 251 235 233 229 222 221 214 218 219 222 225 229 219 231 233 234 227 215 218 218 228 250 252 250 254 273 283 292 296 289 302 305 308 307 305
253 237 247 237 229 229 228 230 218 219 222 226 228 222 224 230 231 230 227 213 197 201 212 223 232 239 242 241 267 290 306 294 300 304 306 306 309 312
254 237 246 232 215 231 228 212 212 214 220 223 221 221 223 227 221 213 196 202 209 197 206 213 212 220 234 256 270 283 295 297 302 308 312 316 317 316
246 234 228 232 218 217 201 205 213 213 220 222 210 206 196 203 203 200 185 182 171 171 187 207 223 237 247 255 262 279 290 296 304 312 317 320 320 320
219 208 210 211 209 203 201 208 214 203 191 177 177 180 178 167 163 161 160 164 173 187 211 236 236 245 252 257 264 275 287 292 303 311 317 320 321 325
235 217 209 212 214 204 204 217 189 164 156 157 157 156 154 155 159 166 177 184 189 206 208 238 251 262 267 264 264 269 283 292 303 310 313 316 323 330
252 233 213 206 215 212 205 199 168 163 152 151 149 150 151 156 162 168 174 184 199 226 253 270 262 268 256 266 271 277 284 294 303 310 317 322 327 331
203 197 216 207 206 205 193 184 172 170 163 157 153 151 153 156 158 163 164 153 305 289 290 288 279 274 270 268 267 272 288 295 310 331 332 341 342 341
186 198 209 195 195 192 188 189 176 179 176 169 166 171 176 177 188 183 188 217 301 309 306 304 301 288 275 262 261 263 281 303 341 355 351 355 359 357
183 183 172 177 185 185 191 185 170 184 186 194 214 204 205 205 205 204 211 245 298 312 316 313 306 290 270 252 244 243 288 335 348 12 13 6 7 4
162 169 165 182 193 203 183 173 178 189 206 229 223 207 207 208 215 215 228 273 300 300 309 315 321 310 287 222 216 265 342 347 359 13 21 12 351 347
160 160 160 163 170 173 173 179 190 210 234 233 220 210 205 214 222 224 238 262 276 289 312 316 311 290 240 185 197 247 349 356 351 350 348 342 342 332
165 159 162 170 176 184 192 203 215 224 224 217 213 214 207 213 223 229 235 254 268 290 298 289 290 235 206 205 212 255 312 335 341 336 331 336 339 341
183 170 171 189 197 204 212 211 212 214 215 213 212 216 211 219 229 230 240 259 266 280 288 293 259 221 197 198 220 306 326 331 333 343 343 338 338 342
194 193 189 192 229 238 223 216 215 217 220 221 223 225 225 229 232 234 247 260 260 262 273 269 240 214 212 219 2 352 331 327 338 342 336 335 340 343
220 224 212 221 246 255 253 261 235 222 223 227 230 230 233 233 232 239 247 252 241 251 264 254 229 215 235 296 320 319 321 321 336 336 328 331 334 326
232 232 215 240 242 242 240 243 249 253 228 224 225 227 232 236 237 237 240 242 240 247 251 235 226 237 270 310 316 332 344 341 341 348 350 342 335 329